Weather History for Mount Airy, NC

Change the Weather History Date:

Sunday, January 6, 2013

  Actual Average (KINT) Record (KINT)
Temperature  
Mean Temperature 43 °F -  
Max Temperature 54 °F 49 °F 66 °F (2005)
Min Temperature 33 °F 32 °F 6 °F (1969)
Degree Days  
Heating Degree Days 22    
Moisture  
Dew Point 32 °F    
Average Humidity 67    
Maximum Humidity 90    
Minimum Humidity 46    
Precipitation  
Precipitation 0.00 in - - ()
Sea Level Pressure  
Sea Level Pressure 30.12 in    
Wind  
Wind Speed 2 mph (WNW)    
Max Wind Speed 7 mph    
Max Gust Speed 17 mph    
Visibility 10 miles    
Events Rain    
Averages and records for this station are not official NWS values.
T = Trace of Precipitation, MM = Missing Value Source: NWS Daily Summary

Daily Weather History Graph

Daily Weather History Graph

Search for Another Location

Airport:

Trip Planner

Search our weather history database for the weather conditions in past years. The results will help you decide how hot, cold, wet, or windy it might be!

Date:

Astronomy

Jan. 06, 2013 Rise Set
Actual Time 7:34 AM EST 5:22 PM EST
Civil Twilight 7:06 AM EST 5:50 PM EST
Nautical Twilight 6:33 AM EST 6:22 PM EST
Astronomical Twilight 6:02 AM EST 6:53 PM EST
Moon 1:51 AM EST (1/6) 12:45 PM EST (1/6)
Length of Visible Light 10h 44m
Length of Day
9h 47m
Waning Crescent, 33% of the Moon is Illuminated
Jan 6
Waning Crescent
Jan 11
New
Jan 18
First Quarter
Jan 26
Full
Feb 3
Last Quarter

Hourly Weather History & Observations

Time (EST) Temp. Windchill Dew Point Humidity Pressure Visibility Wind Dir Wind Speed Gust Speed Precip Events Conditions
12:15 AM 41.9 °F - 28.8 °F 60% 30.17 in 10.0 mi Calm Calm - N/A   Light Drizzle
12:35 AM 41.7 °F 39.8 °F 28.2 °F 59% 30.19 in 10.0 mi WNW 3.5 mph - N/A Rain Rain
12:55 AM 41.2 °F - 29.5 °F 63% 30.18 in 10.0 mi Calm Calm - N/A Rain Light Rain
1:15 AM 40.5 °F - 31.1 °F 69% 30.17 in 10.0 mi Calm Calm - N/A Rain Light Rain
1:35 AM 40.6 °F - 29.7 °F 65% 30.17 in 10.0 mi Calm Calm - N/A   Light Drizzle
1:55 AM 39.6 °F - 34.0 °F 80% 30.17 in 10.0 mi Calm Calm - N/A   Light Drizzle
2:15 AM 39.4 °F - 34.0 °F 81% 30.17 in 10.0 mi Calm Calm - N/A Rain Light Rain
2:35 AM 39.4 °F - 34.9 °F 84% 30.17 in 10.0 mi Calm Calm - N/A   Overcast
2:55 AM 39.2 °F - 34.9 °F 84% 30.16 in 10.0 mi Calm Calm - N/A   Overcast
3:15 AM 39.2 °F 37.0 °F 33.3 °F 79% 30.15 in 10.0 mi SE 3.5 mph - N/A   Overcast
3:55 AM 39.4 °F - 32.0 °F 75% 30.16 in 10.0 mi Calm Calm - N/A   Overcast
4:15 AM 38.8 °F - 34.2 °F 83% 30.15 in 10.0 mi Calm Calm - N/A   Overcast
4:35 AM 38.5 °F - 33.8 °F 83% 30.14 in 10.0 mi Calm Calm - N/A Rain Light Rain
4:55 AM 38.7 °F 36.3 °F 32.9 °F 80% 30.13 in 10.0 mi NNE 3.5 mph - N/A   Mostly Cloudy
5:15 AM 37.6 °F - 33.6 °F 86% 30.13 in 10.0 mi Calm Calm - N/A   Scattered Clouds
5:35 AM 37.4 °F - 32.9 °F 84% 30.13 in 10.0 mi Calm Calm - N/A   Clear
5:55 AM 36.9 °F - 32.5 °F 84% 30.13 in 10.0 mi Calm Calm - N/A   Clear
6:15 AM 35.2 °F - 32.0 °F 88% 30.13 in 10.0 mi Calm Calm - N/A   Scattered Clouds
6:35 AM 35.6 °F - 32.0 °F 87% 30.14 in 10.0 mi Calm Calm - N/A   Scattered Clouds
6:55 AM 35.6 °F - 32.0 °F 87% 30.14 in 10.0 mi Calm Calm - N/A   Scattered Clouds
7:15 AM 34.3 °F - 31.8 °F 90% 30.14 in 10.0 mi Calm Calm - N/A   Scattered Clouds
7:35 AM 33.8 °F - 31.1 °F 90% 30.15 in 10.0 mi Calm Calm - N/A   Scattered Clouds
8:15 AM 33.4 °F - 30.9 °F 90% 30.14 in 10.0 mi Calm Calm - N/A   Scattered Clouds
8:35 AM 34.2 °F - 31.3 °F 89% 30.14 in 10.0 mi Calm Calm - N/A   Mostly Cloudy
9:35 AM 41.5 °F - 34.7 °F 77% 30.14 in 10.0 mi Calm Calm - N/A   Clear
9:55 AM 43.0 °F - 34.9 °F 73% 30.15 in 10.0 mi Calm Calm - N/A   Clear
10:15 AM 43.7 °F - 34.2 °F 69% 30.15 in 10.0 mi Calm Calm - N/A   Clear
10:35 AM 44.4 °F - 35.2 °F 70% 30.15 in 10.0 mi Calm Calm - N/A   Clear
10:55 AM 45.5 °F - 35.2 °F 67% 30.15 in 10.0 mi Calm Calm - N/A   Clear
11:15 AM 46.2 °F 45.0 °F 35.1 °F 65% 30.14 in 10.0 mi SSW 3.5 mph - N/A   Clear
11:35 AM 47.1 °F - 35.6 °F 64% 30.12 in 10.0 mi Calm Calm - N/A   Clear
11:55 AM 48.0 °F - 35.8 °F 63% 30.10 in 10.0 mi Calm Calm - N/A   Clear
12:35 PM 49.6 °F - 34.9 °F 57% 30.08 in 10.0 mi WSW 3.5 mph - N/A   Scattered Clouds
12:55 PM 50.7 °F - 35.1 °F 55% 30.06 in 10.0 mi WSW 4.6 mph - N/A   Clear
1:15 PM 51.4 °F - 35.4 °F 54% 30.05 in 10.0 mi SSW 4.6 mph - N/A   Clear
1:35 PM 51.1 °F - 34.3 °F 53% 30.04 in 10.0 mi SSW 5.8 mph - N/A   Clear
1:55 PM 52.2 °F - 34.9 °F 52% 30.04 in 10.0 mi South 4.6 mph - N/A   Clear
2:15 PM 52.9 °F - 34.3 °F 49% 30.03 in 10.0 mi West 4.6 mph - N/A   Clear
2:35 PM 50.9 °F - 34.2 °F 53% 30.02 in 10.0 mi Calm Calm - N/A   Scattered Clouds
2:55 PM 53.8 °F - 34.9 °F 49% 30.02 in 10.0 mi SW 4.6 mph - N/A   Mostly Cloudy
3:15 PM 53.6 °F - 34.5 °F 48% 30.02 in 10.0 mi West 5.8 mph - N/A   Overcast
3:35 PM 52.3 °F - 34.7 °F 51% 30.02 in 10.0 mi WNW 3.5 mph - N/A   Overcast
3:55 PM 52.2 °F - 34.7 °F 51% 30.03 in 10.0 mi West 3.5 mph - N/A   Mostly Cloudy
4:15 PM 53.6 °F - 33.3 °F 46% 30.03 in 10.0 mi West 6.9 mph - N/A   Mostly Cloudy
4:35 PM 51.1 °F - 32.9 °F 50% 30.03 in 10.0 mi NW 5.8 mph - N/A   Scattered Clouds
4:55 PM 48.9 °F - 32.9 °F 54% 30.04 in 10.0 mi NW 3.5 mph - N/A   Scattered Clouds
5:15 PM 47.5 °F - 32.9 °F 57% 30.05 in 10.0 mi WNW 4.6 mph - N/A   Scattered Clouds
5:35 PM 46.8 °F - 32.2 °F 57% 30.06 in 10.0 mi NW 4.6 mph - N/A   Overcast
5:55 PM 45.5 °F 42.5 °F 32.2 °F 60% 30.07 in 10.0 mi NW 5.8 mph - N/A   Mostly Cloudy
6:15 PM 44.8 °F 41.0 °F 32.0 °F 61% 30.08 in 10.0 mi NW 6.9 mph - N/A   Mostly Cloudy
6:35 PM 44.6 °F 40.7 °F 32.0 °F 61% 30.10 in 10.0 mi NW 6.9 mph - N/A   Overcast
7:15 PM 42.4 °F 38.1 °F 30.7 °F 63% 30.12 in 10.0 mi NW 6.9 mph - N/A   Scattered Clouds
7:35 PM 43.2 °F 39.0 °F 29.3 °F 58% 30.12 in 10.0 mi WNW 6.9 mph 17.3 mph N/A   Clear
7:55 PM 42.3 °F 39.4 °F 29.1 °F 60% 30.12 in 10.0 mi WNW 4.6 mph - N/A   Clear
8:15 PM 41.9 °F - 28.8 °F 60% 30.12 in 10.0 mi Calm Calm - N/A   Clear
8:35 PM 42.3 °F - 28.8 °F 59% 30.12 in 10.0 mi Calm Calm - N/A   Clear
8:55 PM 39.6 °F - 28.6 °F 65% 30.12 in 10.0 mi Calm Calm - N/A   Clear
9:15 PM 38.1 °F - 28.8 °F 69% 30.13 in 10.0 mi Calm Calm - N/A   Scattered Clouds
9:35 PM 37.8 °F - 28.9 °F 71% 30.13 in 10.0 mi Calm Calm - N/A   Scattered Clouds
10:15 PM 39.4 °F - 29.5 °F 68% 30.15 in 10.0 mi Calm Calm - N/A   Overcast
10:35 PM 40.6 °F - 30.0 °F 66% 30.15 in 10.0 mi Calm Calm - N/A   Overcast
10:55 PM 42.4 °F 39.6 °F 30.4 °F 62% 30.15 in 10.0 mi NW 4.6 mph - N/A   Overcast
11:15 PM 42.6 °F 40.9 °F 30.0 °F 61% 30.15 in 10.0 mi WNW 3.5 mph - N/A   Overcast
11:35 PM 42.8 °F 38.6 °F 30.0 °F 61% 30.15 in 10.0 mi WNW 6.9 mph - N/A   Mostly Cloudy
11:55 PM 43.0 °F 38.8 °F 30.0 °F 60% 30.16 in 10.0 mi WNW 6.9 mph - N/A   Scattered Clouds